This is the latest recevied weather packets stored in our database for station/object S54A-11. If no packets are shown the sender has not sent any weather packets the latest 10 day(s).
| Time | Temp. | Humidity | Pressure | Rain* | Wind** | Luminosity | Snow |
|---|---|---|---|---|---|---|---|
| 1777599824 | 0° C | 51% | 1028.3 hPa | - | - | - | - |
| 1777598924 | 0.56° C | 51% | 1028.2 hPa | - | - | - | - |
| 1777598024 | 0.56° C | 50% | 1028.3 hPa | - | - | - | - |
| 1777597124 | 1.11° C | 50% | 1028.2 hPa | - | - | - | - |
| 1777596224 | 1.11° C | 49% | 1028.3 hPa | - | - | - | - |
| 1777595324 | 1.11° C | 48% | 1028.3 hPa | - | - | - | - |
| 1777594424 | 1.67° C | 48% | 1028.3 hPa | - | - | - | - |
| 1777593524 | 1.67° C | 48% | 1028.3 hPa | - | - | - | - |
| 1777592624 | 2.22° C | 47% | 1028.3 hPa | - | - | - | - |
| 1777591724 | 2.78° C | 46% | 1028.5 hPa | - | - | - | - |
| 1777590824 | 2.78° C | 47% | 1028.4 hPa | - | - | - | - |
| 1777589924 | 2.78° C | 47% | 1028.4 hPa | - | - | - | - |
| 1777589024 | 3.33° C | 45% | 1028.5 hPa | - | - | - | - |
| 1777588123 | 3.89° C | 45% | 1028.4 hPa | - | - | - | - |
| 1777587223 | 4.44° C | 46% | 1028.4 hPa | - | - | - | - |
| 1777586323 | 4.44° C | 44% | 1028.4 hPa | - | - | - | - |
| 1777585423 | 4.44° C | 46% | 1028.3 hPa | - | - | - | - |
| 1777584523 | 5° C | 44% | 1028.2 hPa | - | - | - | - |
| 1777583623 | 5° C | 46% | 1028.1 hPa | - | - | - | - |
| 1777582723 | 5.56° C | 43% | 1027.9 hPa | - | - | - | - |
| 1777581823 | 5.56° C | 42% | 1028 hPa | - | - | - | - |
| 1777580923 | 6.11° C | 42% | 1027.8 hPa | - | - | - | - |
| 1777580023 | 6.11° C | 44% | 1027.6 hPa | - | - | - | - |
| 1777579123 | 6.67° C | 42% | 1027.3 hPa | - | - | - | - |
| 1777578223 | 6.67° C | 42% | 1027.1 hPa | - | - | - | - |
* Rain since midnight (hover to see other rain measurements)
** Current wind speed in m/s (hover to see current wind gust speed)